Hourly Weather Roundup
Issued by NWS Central Illinois

Home | Current Version | Previous Version | Text Only | Print | Product List | Glossary On
Versions: 1 2 3 4 5 6 7 8 9 10 11 12 13 14 15 16 17 18 19 20 21 22 23 24 25 26 27 28 29 30 31 32 33 34 35 36 37 38 39 40 41 42 43 44 45 46 47 48 49 50
000
NZUS43 KILX 191010
HWRILX

Area Weather Roundup
National Weather Service Lincoln IL
400 AM CST MON FEB 19 2018

NOTE:  "FAIR" indicates few or no clouds below 12,000 feet, with
       no sigificant weather and/or obstructions to visibility.


CITY           SKY/WX    TMP DP  RH WIND       PRES   REMARKS
Bloomington    CLOUDY    45  44  97 SW12      29.87R FOG
Champaign      CLOUDY    45  43  93 S17       29.90R
Danville       HVY RAIN  46  43  89 S15G24    29.90R
Decatur        CLOUDY    48  48 100 S14       29.89S
Effingham      CLOUDY    52  50  92 S10G17    29.94R
Flora          CLOUDY    55  53  93 S17       29.95S
Galesburg      FAIR      41  40  97 S6        29.82R
Jacksonville   CLOUDY    48  46  93 S13       29.83F FOG
Lacon          FAIR      40  38  93 S7        29.83S
Lawrenceville  CLOUDY    53  48  83 S20       29.98S
Litchfield     CLOUDY    49  48  97 S16G23    29.86F
$$


CITY           SKY/WX    TMP DP  RH WIND       PRES   REMARKS
Lincoln        DRIZZLE   48  48 100 S9        29.86S
Macomb         RAIN      42  40  95 S9        29.85R
Mattoon        LGT RAIN  48  45  89 S9        29.91S
Mt Carmel AP   CLOUDY    53  49  87 S16       29.97F
Olney-Noble AP CLOUDY    52  50  93 S12G17    29.96S
Paris AP       LGT RAIN  47  46  93 SW9       29.95R
Peoria         CLOUDY    44  40  85 S8        29.85S
Pontiac        CLOUDY    39  38  98 SE7       29.87F WCI  34
Rantoul        DRIZZLE   47  46  96 S8        29.91R
Robinson       CLOUDY    51  48  88 S13       29.96S
Springfield    LGT RAIN  50  48  93 S14       29.86R
Taylorville    CLOUDY    48  47  97 S15G21    29.87F
$$

...REGIONAL REPORTS...


CITY           SKY/WX    TMP DP  RH WIND       PRES   REMARKS
Chicago O`Hare CLOUDY    39  36  89 S7        29.85S WCI  34
Kankakee       CLOUDY    37  37  98 CALM      29.90S FOG
Moline         FAIR      39  35  86 E6        29.77F WCI  35
Mount Sterling TSTM      44  44  97 E7        29.80S
Mount Vernon   CLOUDY    55  53  93 SW20      29.95S
Pittsfield     DRIZZLE   49  48  97 SE10      29.80F
Quincy         TSTM      46  45  96 E8        29.78F FOG
Rockford       CLOUDY    36  33  89 S5        29.84S WCI  32
$$


CITY           SKY/WX    TMP DP  RH WIND       PRES   REMARKS
Burlington     RAIN      45  42  89 S12       29.79R FOG
Cedar Rapids   FAIR      38  32  79 SE7       29.72F WCI  33
Des Moines     DRIZZLE   44  39  82 S12       29.66F
Kirksville     CLOUDY    46  46 100 E7        29.72S FOG
Ottumwa        CLOUDY    46  41  82 S13       29.72S
St Louis       CLOUDY    56  53  90 S10G22    29.85F
$$


CITY           SKY/WX    TMP DP  RH WIND       PRES   REMARKS
Terre Haute    CLOUDY    52  47  83 S18G24    29.95S
Evansville     CLOUDY    56  53  90 S13       30.04S
Indianapolis   LGT RAIN  48  44  86 S14       29.97S
Lafayette      CLOUDY    45  44  97 SW7       29.93R
Madison        CLOUDY    35  31  85 S6        29.81R WCI  30
Milwaukee      CLOUDY    39  33  79 S6        29.82F WCI  35
$$






USA.gov is the U.S. government's official web portal to all federal, state and local government web resources and services.